TimeMST,TemperatureF,Dew PointF,Humidity,Sea Level PressureIn,VisibilityMPH,Wind Direction,Wind SpeedMPH,Gust SpeedMPH,PrecipitationIn,Events,Conditions,WindDirDegrees,DateUTC
4:40 AM,62.6,50.0,63,29.87,10.0,North,3.5,-,N/A,,Clear,360,2012-11-06 11:40:00
4:50 AM,68,57,60,29.89,3,NNW,11.2,,,,,340,2012-11-06 11:50:00
5:41 AM,62.6,50.0,63,29.89,10.0,Calm,Calm,-,N/A,,Clear,0,2012-11-06 12:41:00
6:42 AM,60.8,48.2,63,29.91,10.0,South,3.5,-,N/A,,Partly Cloudy,170,2012-11-06 13:42:00
7:41 AM,68.0,50.0,52,29.93,10.0,SSE,3.5,-,N/A,,Clear,160,2012-11-06 14:41:00
7:50 AM,65,57,68,29.96,12,SW,2.2,,,,,220,2012-11-06 14:50:00
8:44 AM,75.2,51.8,44,29.95,10.0,South,5.8,-,N/A,,Clear,170,2012-11-06 15:44:00
9:42 AM,82.4,50.0,32,29.96,10.0,South,3.5,-,N/A,,Clear,180,2012-11-06 16:42:00
10:44 AM,86.0,48.2,27,29.95,10.0,ESE,3.5,-,N/A,,Clear,120,2012-11-06 17:44:00
10:50 AM,89,56,23,29.97,12,SSE,8.9,,,,,160,2012-11-06 17:50:00
11:46 AM,91.4,44.6,20,29.92,10.0,SSE,5.8,-,N/A,,Clear,160,2012-11-06 18:46:00
12:43 PM,93.2,42.8,17,29.89,10.0,SSE,4.6,-,N/A,,Partly Cloudy,150,2012-11-06 19:43:00
1:42 PM,96.8,41.0,15,29.86,8.0,SW,3.5,-,N/A,,Partly Cloudy,230,2012-11-06 20:42:00
1:50 PM,99,52,13,29.88,12,SW,11.2,,,,,220,2012-11-06 20:50:00
2:41 PM,96.8,41.0,15,29.84,8.0,WSW,6.9,-,N/A,,Partly Cloudy,240,2012-11-06 21:41:00
3:43 PM,96.8,41.0,15,29.85,10.0,SW,6.9,-,N/A,,Partly Cloudy,230,2012-11-06 22:43:00
4:50 PM,91,59,24,29.87,12,WSW,15.7,,,,Clear,250,2012-11-06 23:50:00
4:52 PM,91.4,53.6,28,29.85,10.0,WSW,8.1,-,N/A,,Partly Cloudy,250,2012-11-06 23:52:00
5:44 PM,86.0,53.6,33,29.85,10.0,West,5.8,-,N/A,,Partly Cloudy,280,2012-11-07 00:44:00
6:41 PM,80.6,55.4,42,29.87,10.0,WNW,3.5,-,N/A,,Clear,290,2012-11-07 01:41:00
7:41 PM,75.2,55.4,50,29.88,10.0,NNW,4.6,-,N/A,,Clear,340,2012-11-07 02:41:00